Weather History for KOSA - October, 2012

Change the Weather History Date:

Tuesday, October 9, 2012

  Actual Average (KGGG) Record (KGGG)
Temperature  
Mean Temperature 58 °F 68 °F  
Max Temperature 73 °F 80 °F 96 °F (1939)
Min Temperature 42 °F 56 °F 36 °F (1917)
Degree Days  
Heating Degree Days 8 1  
Month to date heating degree days 9  
Since 1 July heating degree days 15  
Cooling Degree Days 0 4  
Month to date cooling degree days 49  
Year to date cooling degree days 2328  
Growing Degree Days 8 (Base 50)    
Moisture  
Dew Point 54 °F    
Average Humidity 85    
Maximum Humidity 100    
Minimum Humidity 64    
Precipitation  
Precipitation 0.00 in 0.13 in 2.00 in (1909)
Month to date precipitation 1.35  
Year to date precipitation 35.34  
Snow  
Snow 0.00 in - - ()
Month to date snowfall  
Since 1 July snowfall  
Since 1 September snowfall  
Snow Depth -    
Sea Level Pressure  
Sea Level Pressure 30.04 in    
Wind  
Wind Speed 4 mph (SE)    
Max Wind Speed 15 mph    
Max Gust Speed 21 mph    
Visibility 10 miles    
Events      
T = Trace of Precipitation, MM = Missing Value Source: NWS Daily Summary

Daily Weather History Graph

Daily Weather History Graph

Search for Another Location

Airport or City:

Trip Planner

Search our weather history database for the weather conditions in past years. The results will help you decide how hot, cold, wet, or windy it might be!

Date:

Astronomy

Oct. 09, 2012 Rise Set
Actual Time 7:20 AM CDT 6:53 PM CDT
Civil Twilight 6:55 AM CDT 7:18 PM CDT
Nautical Twilight 6:26 AM CDT 7:46 PM CDT
Astronomical Twilight 5:57 AM CDT 8:15 PM CDT
Moon 1:15 AM CDT (10/9) 3:04 PM CDT (10/9)
Length of Visible Light 12h 22m
Length of Day
11h 33m
Last Quarter, 36% of the Moon is Illuminated
Oct 9
Last Quarter
Oct 15
New
Oct 21
First Quarter
Oct 29
Full
Nov 6
Last Quarter

Hourly Weather History & Observations

Time (CDT) Temp. Windchill Dew Point Humidity Pressure Visibility Wind Dir Wind Speed Gust Speed Precip Events Conditions
12:15 AM 46.4 °F - 44.6 °F 93% 30.14 in 10.0 mi Calm Calm - N/A   Clear
12:55 AM 44.6 °F 43.1 °F 44.6 °F 100% 30.13 in 10.0 mi ESE 3.5 mph - N/A   Clear
1:15 AM 44.6 °F 42.2 °F 44.6 °F 100% 30.13 in 10.0 mi ESE 4.6 mph - N/A   Clear
1:55 AM 44.6 °F 43.1 °F 44.6 °F 100% 30.13 in 10.0 mi ESE 3.5 mph - N/A   Clear
2:35 AM 44.6 °F - 44.6 °F 100% 30.13 in 10.0 mi Calm Calm - N/A   Clear
2:55 AM 44.6 °F - 44.6 °F 100% 30.13 in 10.0 mi Calm Calm - N/A   Clear
3:15 AM 44.6 °F 43.1 °F 44.6 °F 100% 30.12 in 10.0 mi East 3.5 mph - N/A   Clear
3:35 AM 44.6 °F 43.1 °F 44.6 °F 100% 30.11 in 10.0 mi ESE 3.5 mph - N/A   Clear
3:55 AM 44.6 °F 43.1 °F 44.6 °F 100% 30.11 in 10.0 mi ESE 3.5 mph - N/A   Clear
4:15 AM 44.6 °F 43.1 °F 44.6 °F 100% 30.11 in 10.0 mi East 3.5 mph - N/A   Clear
4:35 AM 44.6 °F 43.1 °F 44.6 °F 100% 30.10 in 10.0 mi ESE 3.5 mph - N/A   Clear
4:55 AM 44.6 °F 42.2 °F 42.8 °F 93% 30.09 in 10.0 mi ESE 4.6 mph - N/A   Clear
5:15 AM 44.6 °F 43.1 °F 42.8 °F 93% 30.10 in 10.0 mi East 3.5 mph - N/A   Clear
5:35 AM 44.6 °F 43.1 °F 44.6 °F 100% 30.10 in 10.0 mi East 3.5 mph - N/A   Clear
5:55 AM 44.6 °F 42.2 °F 42.8 °F 93% 30.10 in 10.0 mi ESE 4.6 mph - N/A   Clear
6:15 AM 44.6 °F - 44.6 °F 100% 30.11 in 10.0 mi Calm Calm - N/A   Scattered Clouds
6:35 AM 42.8 °F - 42.8 °F 100% 30.11 in 10.0 mi Calm Calm - N/A   Scattered Clouds
6:55 AM 44.6 °F 43.1 °F 44.6 °F 100% 30.12 in 10.0 mi SE 3.5 mph - N/A   Mostly Cloudy
7:15 AM 44.6 °F 43.1 °F 42.8 °F 93% 30.12 in 10.0 mi SE 3.5 mph - N/A   Mostly Cloudy
7:35 AM 46.4 °F 44.3 °F 44.6 °F 93% 30.12 in 10.0 mi ESE 4.6 mph - N/A   Mostly Cloudy
7:55 AM 46.4 °F 42.9 °F 46.4 °F 100% 30.12 in 10.0 mi SE 6.9 mph - N/A   Overcast
8:15 AM 46.4 °F 44.3 °F 46.4 °F 100% 30.12 in 10.0 mi SE 4.6 mph - N/A   Overcast
8:35 AM 48.2 °F - 46.4 °F 93% 30.12 in 10.0 mi SE 5.8 mph - N/A   Overcast
8:55 AM 50.0 °F - 48.2 °F 94% 30.12 in 10.0 mi SE 4.6 mph - N/A   Overcast
9:15 AM 50.0 °F - 48.2 °F 94% 30.12 in 10.0 mi SE 4.6 mph - N/A   Overcast
9:35 AM 51.8 °F - 50.0 °F 94% 30.12 in 10.0 mi SE 5.8 mph - N/A   Overcast
9:55 AM 51.8 °F - 50.0 °F 94% 30.12 in 10.0 mi SE 5.8 mph - N/A   Overcast
10:15 AM 51.8 °F - 50.0 °F 94% 30.11 in 10.0 mi ESE 6.9 mph - N/A   Overcast
10:35 AM 53.6 °F - 51.8 °F 94% 30.12 in 10.0 mi SSE 5.8 mph - N/A   Mostly Cloudy
10:55 AM 55.4 °F - 51.8 °F 88% 30.10 in 10.0 mi SE 6.9 mph - N/A   Scattered Clouds
11:15 AM 59.0 °F - 51.8 °F 77% 30.09 in 10.0 mi SE 9.2 mph - N/A   Scattered Clouds
11:35 AM 60.8 °F - 53.6 °F 77% 30.09 in 10.0 mi SE 6.9 mph - N/A   Scattered Clouds
11:55 AM 62.6 °F - 53.6 °F 72% 30.08 in 10.0 mi SSE 8.1 mph - N/A   Scattered Clouds
12:15 PM 64.4 °F - 53.6 °F 68% 30.07 in 10.0 mi South 9.2 mph 17.3 mph N/A   Mostly Cloudy
12:35 PM 64.4 °F - 55.4 °F 73% 30.06 in 10.0 mi SSE 6.9 mph - N/A   Overcast
12:55 PM 68.0 °F - 55.4 °F 64% 30.05 in 10.0 mi SE 8.1 mph - N/A   Mostly Cloudy
1:15 PM 69.8 °F - 57.2 °F 64% 30.03 in 10.0 mi SSE 15.0 mph 18.4 mph N/A   Scattered Clouds
1:35 PM 69.8 °F - 59.0 °F 68% 30.01 in 10.0 mi South 15.0 mph 20.7 mph N/A   Mostly Cloudy
1:55 PM 71.6 °F - 59.0 °F 64% 29.99 in 10.0 mi SSE 11.5 mph 18.4 mph N/A   Mostly Cloudy
2:15 PM 71.6 °F - 59.0 °F 64% 29.98 in 10.0 mi SSE 12.7 mph 18.4 mph N/A   Mostly Cloudy
2:35 PM 71.6 °F - 60.8 °F 69% 29.97 in 10.0 mi SSE 11.5 mph - N/A   Mostly Cloudy
2:55 PM 71.6 °F - 60.8 °F 69% 29.96 in 10.0 mi SSE 11.5 mph - N/A   Overcast
3:15 PM 71.6 °F - 60.8 °F 69% 29.95 in 10.0 mi SSE 10.4 mph - N/A   Overcast
3:35 PM 73.4 °F - 60.8 °F 65% 29.94 in 10.0 mi South 13.8 mph 18.4 mph N/A   Overcast
3:55 PM 71.6 °F - 60.8 °F 69% 29.95 in 10.0 mi South 9.2 mph - N/A   Overcast
4:15 PM 71.6 °F - 60.8 °F 69% 29.94 in 10.0 mi South 8.1 mph - N/A   Overcast
4:35 PM 71.6 °F - 62.6 °F 73% 29.94 in 10.0 mi South 9.2 mph - N/A   Overcast
4:55 PM 71.6 °F - 62.6 °F 73% 29.93 in 10.0 mi SSE 8.1 mph - N/A   Mostly Cloudy
5:15 PM 71.6 °F - 62.6 °F 73% 29.93 in 10.0 mi SSE 10.4 mph - N/A   Scattered Clouds
5:35 PM 71.6 °F - 62.6 °F 73% 29.92 in 10.0 mi SSE 9.2 mph 17.3 mph N/A   Mostly Cloudy
5:55 PM 71.6 °F - 62.6 °F 73% 29.92 in 10.0 mi SSE 6.9 mph - N/A   Mostly Cloudy
6:15 PM 71.6 °F - 62.6 °F 73% 29.93 in 10.0 mi South 6.9 mph - N/A   Mostly Cloudy
6:35 PM 69.8 °F - 62.6 °F 78% 29.94 in 10.0 mi South 5.8 mph - N/A   Mostly Cloudy
6:55 PM 69.8 °F - 62.6 °F 78% 29.93 in 10.0 mi SSE 5.8 mph - N/A   Mostly Cloudy
7:15 PM 68.0 °F - 62.6 °F 83% 29.94 in 10.0 mi SE 5.8 mph - N/A   Scattered Clouds
7:35 PM 66.2 °F - 62.6 °F 88% 29.94 in 10.0 mi SE 3.5 mph - N/A   Scattered Clouds
7:55 PM 68.0 °F - 62.6 °F 83% 29.95 in 10.0 mi Calm Calm - N/A   Mostly Cloudy
8:15 PM 68.0 °F - 62.6 °F 83% 29.96 in 10.0 mi Calm Calm - N/A   Mostly Cloudy
8:35 PM 68.0 °F - 62.6 °F 83% 29.98 in 10.0 mi NNE 3.5 mph - N/A   Overcast
8:55 PM 68.0 °F - 62.6 °F 83% 29.98 in 10.0 mi ENE 4.6 mph - N/A   Mostly Cloudy
9:15 PM 68.0 °F - 62.6 °F 83% 29.99 in 10.0 mi NE 3.5 mph - N/A   Mostly Cloudy
9:35 PM 68.0 °F - 62.6 °F 83% 30.00 in 10.0 mi Calm Calm - N/A   Mostly Cloudy
9:55 PM 68.0 °F - 62.6 °F 83% 30.01 in 10.0 mi ENE 3.5 mph - N/A   Scattered Clouds
10:15 PM 66.2 °F - 62.6 °F 88% 30.01 in 10.0 mi East 4.6 mph - N/A   Scattered Clouds
10:35 PM 66.2 °F - 62.6 °F 88% 30.01 in 10.0 mi ESE 3.5 mph - N/A   Scattered Clouds
10:55 PM 66.2 °F - 62.6 °F 88% 30.01 in 10.0 mi ESE 3.5 mph - N/A   Scattered Clouds
11:15 PM 66.2 °F - 62.6 °F 88% 30.02 in 10.0 mi Calm Calm - N/A   Scattered Clouds
11:35 PM 68.0 °F - 62.6 °F 83% 30.02 in 10.0 mi NE 3.5 mph - N/A   Scattered Clouds
11:55 PM 66.2 °F - 62.6 °F 88% 30.03 in 10.0 mi Calm Calm - N/A   Scattered Clouds